EHI
0 0 0 0 0 0 0 0 0 0 0 0 0 0 0 0 0 0 0 0 0 0 0 0 0 0 0 0 0 0 0 0 0 0 0 0 0 0 0 0 0 0 0 0
0 0 0 0 0 0 0 0 0 0 0 0 0 0 0 0 0 0 0 0 0 0 0 0 0 0 0 0 0 0 0 0 0 0 0 0 0 0 0 0 0 0 0 0
0 0 0 0 0 0 0 0 0 0 0 0 0 0 0 0 0 0 0 0 0 0 0 0 0 0 0 0 0 0 0 0 0 0 0 0 0 0 0 0 0 0 0 0
0 0 0 0 0 0 0 0 0 0 0 0 0 0 0 0 0 0 0 0 0 0 0 0 0 0 0 0 0 0 0 0 0 0 0 0 0 0 0 0 0 0 0 0
0 0 0 0 0 0 0 0 0 0 0 0 0 0 0 0 0 0 0 0 0 0 0 0 0 0 0 0 0 0 0 0 0 0 0 0 0 0 0 0 0 0 0 0
0 0 0 0 0 0 0 0 0 0 0 0 0 0 0 0 0 0 0 0 0 0 0 0 0 0 0 0 0 0 0 0 0 0 0 0 0 0 0 0 0 0 0 0
0 0 0 0 0 0 0 0 0 0 0 0 0 0 0 0 0 0 0 0 0 0 0 0 0 0 0 0 0 0 0 0 0 0 0 0 0 0 0 0 0 0 0 0
0 0 0 0 0 0 0 0 0 0 0 0 0 0 0 0 0 0 0 0 0 0 0 0 0 0 0 0 0 0 0 0 0 0 0 0 0 0 0 0 0 0 0 0
0 0 0 0 0 0 0 0 0 0 0 0 0 0 0 0 0 0 0 0 0 0 0 0 0 0 0 0 0 0 0 0 0 0 0 0 0 0 0 0 0 0 0 0
0 0 0 0 0 0 0 0 0 0 0 0 0 0 0 0 0 0 0 0 0 0 0 0 0 0 0 0 0 0 0 0 0 0 0 0 0 0 0 0 0 0 0 0
0 0 0 0 0 0 0 0 0 0 0 0 0 0 0 0 0 0 0 0 0 0 0 0 0 0 0 0 0 0 0 0 0 0 0 0 0 0 0 0 0 0 0 0
0 0 0 0 0 0 0 0 0 0 0 0 0 0 0 0 0 0 0 0 0 0 0 0 0 0 0 0 0 0 0 0 0 0 0 0 0 0 0 0 0 0 0 0
0 0 0 0 0 0 0 0 0 0 0 0 0 0 0 0 0 0 0 0 0 0 0 0 0 0 0 0 0 0 0 0 0 0 0 0 0 0 0 0 0 0 0 0
0 0 0 0 0 0 0 0 0 0 0 0 0 0 0 0 0 0 0 0 0 0 0 0 0 0 0 0 0 0 0 0 0 0 0 0 0 0 0 0 0 0 0 0
0 0 0 0 0 0 0 0 0 0 0 0 0 0 0 0 0 0 0 0 0 0 0 0 0 0 0 0 0 0 0 0 0 0 0 0 0 0 0 0 0 0 0 0
0 0 0 0 0 0 0 0 0 0 0 0 0 0 0 0 0 0 0 0 0 0 0 0 0 0 0 0 0 0 0 0 0 0 0 0 0 0 0 0 0 0 0 0
0 0 0 0 0 0 0 0 0 0 0 0 0 0 0 0 0 0 0 0 0 0 0 0 0 0 0 0 0 0 0 0 0 0 0 0 0 0 0 0 0 0 0 0
0 0 0 0 0 0 0 0 0 0 0 0 0 0 0 0 0 0 0 0 0 0 0 0 0 0 0 0 0 0 0 0 0 0 0 0 0 0 0 0 0 0 0 0
0 0 0 0 0 0 0 0 0 0 0 0 0 0 0 0 0 0 0 0 0 0 0 0 0 0 0 0 0 0 0 0 0 0 0 0 0 0 0 0 0 0 0 0
0 0 0 0 0 0 0 0 0 0 0 0 0 0 0 0 0 0 0 0 0 0 0 0 0 0 0 0 0 0 0 0 0 0 0 0 0 0 0 0 0 0 0 0
0 0 0 0 0 0 0 0 0 0 0 0 0 0 0 0 0 0 0 0 0 0 0 0 0 0 0 0 0 0 0 0 0 0 0 0 0 0 0 0 0 0 0 0
0 0 0 0 0 0 0 0 0 0 0 0 0 0 0 0 0 0 0 0 0 0 0 0 0 0 0 0 0 0 0 0 0 0 0 0 0 0 0 0 0 0 0 0
0 0 0 0 0 0 0 0 0 0 0 0 0 0 0 0 0 0 0 0 0 0 0 0 0 0 0 0 0 0 0 0 0 0 0 0 0 0 0 0 0 0 0 0
0 0 0 0 0 0 0 0 0 0 0 0 0 0 0 0 0 0 0 0 0 0 0 0 0 0 0 0 0 0 0 0 0 0 0 0 0 0 0 0 0 0 0 0
0 0 0 0 0 0 0 0 0 0 0 0 0 0 0 0 0 0 0 0 0 0 0 0 0 0 0 0 0 0 0 0 0 0 0 0 0 0 0 0 0 0 0 0
0 0 0 0 0 0 0 0 0 0 0 0 0 0 0 0 0 0 0 0 0 0 0 0 0 0 0 0 0 0 0 0 0 0 0 0 0 0 0 0 0 0 0 0
0 0 0 0 0 0 0 0 0 0 0 0 0 0 0 0 0 0 0 0 0 0 0 0 0 0 0 0 0 0 0 0 0 0 0 0 0 0 0 0 0 0 0 0
Wind_Speed
13 11 8 11 13 14 17 18 17 19 20 20 17 15 14 13 13 12 11 10 10 10 10 10 10 9 8 8 7 6 6 7 7 6 6 6 6 6 7 8 8 7 8 9
11 12 12 15 18 19 20 20 22 23 24 18 15 12 12 12 11 10 10 10 10 10 10 10 10 10 9 9 7 6 6 6 6 6 6 6 6 6 7 7 7 8 9 9
9 7 7 15 16 18 16 16 15 19 19 14 13 12 11 11 10 10 9 9 10 10 10 10 9 9 10 9 7 6 6 6 5 6 6 6 6 6 7 7 7 7 8 8
5 5 14 8 3 10 14 16 15 15 15 13 13 11 10 9 9 9 8 9 9 9 9 9 9 9 8 7 7 7 6 6 6 6 6 6 6 7 7 7 7 7 7 8
6 9 13 10 6 7 9 11 11 14 14 13 10 9 8 6 6 7 8 8 8 9 9 9 9 8 8 7 7 7 7 7 7 7 7 7 7 8 7 7 7 7 7 8
8 9 11 5 3 4 5 10 6 9 10 9 6 8 6 4 5 7 7 7 8 8 8 8 8 8 7 7 8 8 8 8 8 7 7 8 8 8 7 6 7 7 7 8
12 12 11 5 5 7 8 5 2 6 7 7 7 7 7 6 7 8 8 8 8 8 8 8 8 7 8 8 9 9 9 8 8 8 8 8 8 7 7 6 7 7 8 8
9 11 11 6 9 9 7 2 3 5 6 7 8 8 9 8 9 9 8 8 8 8 8 8 7 7 8 9 9 9 9 8 9 9 8 7 8 7 7 7 7 7 7 7
10 9 4 7 9 7 5 6 7 7 7 7 8 9 9 10 9 9 9 8 8 8 8 8 7 7 8 8 9 9 8 9 9 9 8 8 7 8 7 6 6 6 6 6
9 11 9 9 10 9 9 9 9 8 8 8 9 10 10 10 9 8 8 8 8 8 8 9 8 7 8 8 8 8 9 9 8 8 8 8 6 6 6 6 6 6 6 6
11 12 10 10 11 11 10 9 9 9 8 9 10 10 10 9 8 8 7 7 7 7 8 9 8 8 8 8 8 9 9 8 8 8 8 7 7 6 7 7 7 7 6 6
11 9 8 9 8 8 9 9 9 9 9 9 8 9 9 8 8 7 7 7 7 8 8 8 8 8 8 8 8 8 8 8 7 6 7 6 7 7 7 8 10 11 11 10
11 10 10 11 10 8 8 8 7 7 8 8 7 7 7 7 7 7 7 8 8 8 8 9 9 8 7 7 7 8 8 8 6 6 7 7 7 7 8 7 8 9 10 11
9 8 10 9 8 7 6 6 6 6 6 6 6 5 5 6 6 7 7 7 7 7 7 8 8 8 7 7 7 8 8 8 8 7 7 7 7 7 6 7 7 7 7 9
7 7 8 7 6 5 5 4 4 5 5 5 4 4 5 6 6 7 6 6 6 7 7 7 7 8 7 7 7 8 7 6 6 6 6 6 7 7 6 7 7 7 7 7
6 5 5 6 6 5 5 5 5 5 5 5 5 5 5 6 6 6 6 6 6 7 7 7 7 8 7 7 8 7 6 8 8 7 6 6 6 6 6 6 6 6 6 6
5 5 4 5 5 5 5 5 5 5 5 5 6 6 5 5 6 6 6 6 6 7 7 7 8 7 7 7 7 6 6 7 9 7 6 6 6 6 6 6 6 6 6 7
4 4 4 4 4 4 4 4 4 4 5 5 6 5 5 6 6 6 6 6 6 6 6 6 7 7 7 7 7 6 6 6 6 6 6 6 6 6 6 6 7 7 7 6
2 2 2 3 3 4 4 4 4 4 4 4 5 5 5 5 6 6 6 6 6 7 6 6 9 8 7 7 8 5 6 6 6 6 6 7 7 6 6 6 6 6 6 6
2 2 2 3 3 3 3 4 4 4 4 4 5 5 5 5 5 5 6 5 5 5 6 7 7 7 7 7 8 5 6 6 6 6 6 6 6 6 6 6 6 6 6 5
3 3 3 3 3 3 3 4 4 4 4 4 4 5 5 5 5 5 5 5 5 6 6 8 6 6 6 7 8 5 6 6 6 6 6 6 6 6 6 6 6 6 6 5
3 3 3 3 3 4 4 3 3 4 4 4 4 4 4 5 5 5 5 4 5 7 6 5 5 7 9 9 6 6 6 6 6 5 6 5 5 5 6 6 6 6 6 6
3 3 3 3 3 4 4 4 3 3 4 4 4 4 5 5 4 4 5 4 4 7 6 5 8 11 12 7 6 6 6 6 6 6 6 5 5 5 6 6 6 6 6 6
3 3 3 3 3 3 4 4 4 3 4 4 4 4 4 4 4 3 4 6 8 9 6 7 11 12 11 6 6 6 6 6 6 6 6 6 5 5 5 6 6 5 5 6
3 3 3 3 3 3 3 4 4 4 4 3 4 4 4 3 4 4 5 6 8 8 6 7 10 11 7 6 6 6 6 6 6 6 6 6 5 5 5 5 5 5 5 5
3 3 3 3 3 3 3 3 3 3 3 4 4 4 3 3 4 4 4 5 7 8 6 5 6 7 5 6 6 6 6 6 7 6 6 6 6 6 5 5 6 5 5 4
2 2 2 2 2 2 3 3 3 3 3 4 4 4 4 4 4 4 5 5 5 5 5 5 5 5 5 5 6 6 6 6 6 6 5 5 5 5 5 6 5 5 4 4
Wind_Direction
255 261 248 246 243 231 230 239 251 264 270 278 288 295 297 298 301 303 304 309 313 314 314 315 317 318 316 310 301 294 286 278 274 276 283 283 279 276 272 263 254 255 256 252
255 251 251 257 251 244 242 245 250 263 270 278 286 290 291 294 297 297 299 305 311 313 314 314 315 315 315 314 311 299 286 283 289 288 287 286 282 282 279 276 267 259 257 257
254 252 261 252 242 237 236 235 242 253 265 281 284 285 291 296 294 292 297 304 307 309 310 311 312 311 310 310 311 305 299 297 294 291 290 289 288 282 279 277 276 267 261 261
249 231 240 252 229 230 237 245 242 253 267 273 280 291 293 289 288 293 298 300 301 306 309 309 309 311 310 311 311 307 302 299 298 294 289 288 287 283 280 277 273 272 270 263
222 242 263 265 230 213 228 252 243 248 260 270 280 283 274 271 283 290 294 297 299 302 304 306 308 310 312 312 312 309 306 304 302 297 294 292 290 287 282 278 274 272 271 269
219 236 250 261 180 190 228 258 238 237 253 265 268 271 286 300 293 293 296 298 299 301 302 303 308 310 309 309 310 311 310 306 303 298 292 290 289 288 284 278 276 276 274 273
230 242 258 257 163 170 226 265 206 224 245 251 249 265 298 302 298 297 298 299 302 300 298 302 306 307 305 306 308 310 310 309 306 302 296 290 289 288 284 281 279 278 278 278
218 233 246 174 167 207 249 295 244 248 254 258 261 272 281 288 291 293 295 296 300 299 299 304 305 303 302 305 309 310 309 307 307 304 300 295 292 289 285 283 281 280 281 284
217 234 276 191 214 239 267 268 273 268 268 269 271 275 280 285 287 287 290 293 297 297 299 302 304 303 300 306 311 309 308 308 308 305 301 297 293 288 283 281 277 278 280 280
247 255 259 251 253 262 264 266 273 271 271 271 271 276 281 284 286 286 288 290 293 294 296 299 303 302 301 307 309 306 305 306 306 304 304 301 296 289 283 279 277 278 277 280
247 261 270 260 255 260 265 267 269 267 266 268 271 275 279 283 283 285 290 293 293 290 290 295 302 302 305 309 308 303 302 302 303 303 303 302 298 293 286 279 280 282 281 277
249 255 254 271 278 276 270 268 270 270 270 268 265 270 276 278 281 284 287 292 293 292 292 297 302 302 306 308 305 302 300 301 301 302 302 301 300 298 284 273 286 284 283 282
260 272 271 278 283 282 275 276 278 273 273 276 273 268 270 276 281 283 286 289 289 292 296 299 301 301 306 309 305 298 296 299 299 298 299 299 299 299 302 296 285 284 286 288
255 267 267 268 273 279 279 281 282 282 282 277 276 276 275 279 281 283 285 291 294 295 296 299 300 302 310 311 305 299 297 296 296 296 297 297 296 296 296 298 302 301 297 296
254 257 260 271 277 283 285 282 280 282 287 285 280 278 281 283 284 288 294 299 297 293 296 300 300 303 313 311 305 302 299 298 299 298 298 297 297 297 295 294 294 297 302 303
275 270 261 262 268 278 282 279 279 286 291 291 293 294 293 290 290 293 299 302 298 296 301 302 301 307 312 309 306 301 298 301 302 301 300 301 300 300 299 297 295 295 296 301
264 267 270 272 276 280 281 280 278 284 292 294 297 301 299 296 294 296 301 303 298 296 298 300 302 307 308 306 302 299 299 301 303 300 298 299 299 299 297 294 294 294 293 298
266 270 275 276 275 279 283 285 284 287 292 299 304 302 298 294 293 298 304 307 304 301 303 307 308 308 308 307 305 300 299 299 300 299 298 298 298 298 297 294 295 294 296 300
317 305 299 287 280 275 280 288 294 298 301 302 298 295 294 293 295 299 302 302 303 305 314 319 318 315 311 311 311 300 299 300 300 300 300 300 300 297 296 296 297 298 300 303
342 338 330 321 317 301 294 299 303 302 303 300 295 294 296 300 302 302 301 297 301 309 313 315 315 313 313 314 315 305 304 303 302 301 300 300 300 300 300 299 299 300 301 299
332 330 329 326 324 321 312 307 301 300 306 304 297 297 301 306 308 305 300 299 311 318 316 316 317 316 317 319 318 312 309 305 302 301 299 297 297 298 300 301 302 302 302 301
321 319 320 321 322 324 326 317 305 301 305 308 307 304 303 306 310 308 298 295 307 317 319 314 316 320 324 323 316 314 311 307 304 303 300 299 299 300 304 306 305 304 303 301
309 308 309 313 315 315 319 319 315 309 308 309 308 306 302 302 303 302 306 313 315 319 319 312 318 322 324 321 313 310 308 306 305 304 302 301 299 299 300 302 303 304 305 306
302 304 306 310 310 309 313 318 319 315 311 307 306 303 300 300 302 300 298 308 314 316 312 314 321 323 324 318 312 309 308 307 307 306 304 302 300 300 300 300 301 303 303 304
296 295 296 299 302 301 304 310 315 314 311 309 312 313 306 298 296 304 307 309 315 317 313 317 322 323 321 312 312 311 310 308 310 310 307 307 307 305 302 301 302 303 304 302
295 293 291 290 289 291 295 299 302 307 308 309 314 316 316 313 309 308 308 311 312 313 312 311 312 315 312 310 309 309 308 309 309 308 307 307 306 307 307 310 311 308 306 305
300 298 296 299 303 301 298 296 298 303 306 305 307 313 315 314 313 315 314 312 313 313 310 308 307 307 307 307 307 307 307 306 306 306 307 307 307 308 310 310 310 309 308 311